Powrót do katalogu

COSMOS 1818 COOLANT

LostLEO
NORAD 46467·DEBRIS·🇷🇺 Russia

Wystrzelony Feb 1, 1987 z Baikonur Cosmodrome

Loading…

Następne Przeloty (najbliższe 24 godziny)

TLE

NieaktualneSource: Space-Track

Epoka: Dec 29, 2022, 01:08 UTC

1 46467U 87011AK  22363.04772249  .00000723  00000-0  29148-3 0  9994
2 46467  65.0005 155.1155 0014110 264.4898  95.4578 14.34491257476494

Śledź COSMOS 1818 COOLANT w czasie rzeczywistym z AllMySat

Download on the App Store